Flag for Canada Weather past 2 weeks in Kenora, Ontario, Canada

Now
3 °F

Passing clouds.


Feels Like: -9 °F
Forecast: 1 / 18 °F
Wind: 7 mph from Southeast

Location: Kenora

Current Time: Dec 18, 2014 at 7:52:36 AM

Latest Report: Dec 18, 2014 at 7:00 AM


Visibility: 15 mi

Pressure: 30.37 "Hg

Humidity: 85%

Dew point: 0 °F

Location of KenoraLocation

Historic Weather in Kenora — Graph

°F

Kenora temperature yesterday

Maximum temperature yesterday: 18 °F (at 2:00 PM)
Minimum temperature yesterday: 1 °F (at 8:00 AM)
Average temperature yesterday: 9 °F

Past Weeks' High & Low Weather Summary

 TemperatureHumidityPressure
High34 °F (Dec 13, 7:00 PM)100% (Dec 7, 10:00 PM)30.67 "Hg (Dec 7, 10:00 PM)
Low-8 °F (Dec 3, 10:00 PM)49% (Dec 17, 2:00 PM)29.83 "Hg (Dec 15, 12:00 AM)
Average18 °F87%30.18 "Hg
* Reported Dec 3 7:00 AM — Dec 18 7:00 AM, Kenora, Weather by CustomWeather, © 2014

Note: Actual official high and low records may vary slightly from our data, if they occured in-between our weather recording intervals... More about our weather records

Advertising

Kenora weather history for previous 24 hours

 ConditionsComfort  
Time TempWeatherWind HumidityBarometerVisibility
7:00 AM
Dec 18
3 °FPassing clouds.7 mph85%30.37 "Hg15 mi
6:00 AM5 °FClear.6 mph78%30.38 "Hg15 mi
5:00 AM3 °FClear.6 mph78%30.38 "Hg15 mi
4:00 AM3 °FClear.6 mph78%30.39 "Hg15 mi
3:00 AM5 °FClear.6 mph78%30.40 "Hg15 mi
2:00 AM5 °FClear.5 mph78%30.40 "Hg15 mi
1:00 AM5 °FClear.5 mph78%30.40 "Hg15 mi
12:00 AM7 °FClear.6 mph66%30.41 "Hg15 mi
11:00 PM
Dec 17
7 °FClear.5 mph66%30.41 "Hg15 mi
10:00 PM7 °FClear.7 mph66%30.41 "Hg15 mi
9:00 PM9 °FPassing clouds.10 mph66%30.41 "Hg15 mi
8:00 PM9 °FPassing clouds.12 mph72%30.41 "Hg15 mi
7:00 PM10 °FPassing clouds.9 mph72%30.42 "Hg15 mi
6:00 PM12 °FPassing clouds.6 mph62%30.42 "Hg15 mi
5:00 PM16 °FPassing clouds.5 mph57%30.42 "Hg15 mi
4:00 PM18 °FScattered clouds.3 mph53%30.42 "Hg15 mi
3:00 PM18 °FScattered clouds.3 mph53%30.41 "Hg15 mi
2:00 PM18 °FScattered clouds.3 mph49%30.41 "Hg15 mi
1:00 PM16 °FScattered clouds.3 mph62%30.42 "Hg15 mi
12:00 PM12 °FSunny.2 mph73%30.43 "Hg15 mi
11:00 AM9 °FPassing clouds.3 mph78%30.45 "Hg15 mi
10:00 AM5 °FPassing clouds.6 mph85%30.45 "Hg15 mi
9:00 AM3 °FPassing clouds.6 mph85%30.43 "Hg15 mi
8:00 AM1 °FPassing clouds.6 mph92%30.43 "Hg15 mi
7:00 AM3 °FPassing clouds.7 mph85%30.43 "Hg15 mi
Weather by CustomWeather, © 2014

See weather overviewHow to use our weather pages